Location: Invercargill
(46.4000°S, 168.3500°E)
Time: 03:42:21
(UTC+13:00)

Cosmos 2322 - Pass Details

Date: 29 September 2021
Orbit: 840 x 855 km, 71.0° (Epoch: 24 October)

Event Time Altitude Azimuth Distance (km) Brightness Sun altitude
Rises 01:08:38 0° 215° (SW) 3,434 7.6 -41.0°
Reaches altitude 10° 01:11:22 10° 225° (SW) 2,493 6.6 -41.0°
Enters shadow 01:12:22 15° 231° (SW) 2,182 6.2 -41.1°
